Lid_Strength_Index
6 4 2 2 2 2 2 2 1 1 1 1 1 2 2 2 2 2 3 3 3 3 3 3 2 2 2 2 2 2 2 2 4 3 1 1 1 1 0 -0 0 0 1
4 4 2 2 2 2 2 2 1 1 1 1 2 2 2 2 2 3 3 2 3 3 3 2 2 2 2 2 2 2 2 1 2 4 2 2 2 1 1 1 1 0 1
4 4 2 2 2 2 2 2 1 1 1 1 2 3 2 2 3 2 2 2 2 2 2 2 2 2 2 2 2 2 2 1 1 2 3 1 1 1 1 1 1 1 1
3 4 3 3 2 2 2 2 2 1 2 2 2 3 2 2 2 2 2 2 2 1 1 1 1 2 2 2 2 2 2 2 2 2 3 2 2 1 1 2 3 2 2
3 3 3 2 2 2 2 2 2 2 1 2 2 2 2 2 2 2 2 2 1 1 1 1 1 2 3 3 1 2 2 2 2 3 3 3 3 3 3 2 3 3 2
3 3 3 2 2 2 2 2 2 2 2 3 3 3 3 3 9 7 3 1 1 1 2 2 2 4 4 6 6 5 2 2 2 3 3 3 3 2 2 2 2 3 4
3 3 3 3 3 2 2 2 2 3 3 3 3 3 3 3 10 9 6 1 2 2 2 2 2 2 3 2 6 6 6 6 4 1 3 2 2 2 2 2 2 2 3
4 3 3 3 3 3 2 3 2 3 3 4 4 3 3 5 10 10 7 1 2 1 2 2 2 2 2 2 3 2 2 2 2 2 1 1 0 1 1 2 2 3 3
4 3 3 3 3 3 3 3 3 3 4 4 4 4 4 5 11 10 5 2 2 2 2 2 2 2 7 9 2 3 3 4 8 9 7 8 9 7 3 2 3 4 4
4 3 3 3 3 3 3 4 3 4 5 4 5 4 7 6 12 10 4 2 2 3 3 3 7 4 10 10 2 3 3 3 4 3 4 6 6 5 6 1 2 3 4
3 4 2 2 3 3 4 5 4 4 4 5 5 5 4 5 8 11 9 2 2 3 2 3 4 10 11 11 7 2 3 3 5 3 3 2 2 3 1 1 1 2 3
3 3 3 3 3 3 4 4 4 4 5 5 5 5 5 5 9 11 10 8 7 2 2 2 6 11 12 11 7 10 10 6 2 3 2 3 3 3 2 2 1 2 2
3 3 3 3 3 3 3 3 4 4 4 5 5 5 5 5 7 11 11 12 10 3 3 7 11 12 12 10 11 10 8 3 3 3 3 3 2 2 2 2 2 2 2
4 3 3 4 4 3 3 3 3 3 3 4 5 5 6 5 5 6 7 7 9 7 9 8 8 8 8 8 8 6 3 2 3 3 3 3 2 2 2 2 2 3 4
4 3 3 4 4 6 8 5 2 2 3 3 4 4 5 6 4 6 6 4 4 6 6 4 3 3 4 4 4 3 3 3 3 3 3 3 3 2 2 2 2 2 3
3 3 3 4 5 5 5 7 13 12 11 11 10 6 4 8 11 11 11 11 11 11 4 4 3 3 3 3 3 3 4 4 3 3 3 3 3 3 3 3 2 3 3
3 3 4 4 3 4 4 4 6 10 13 13 12 11 9 11 12 11 12 13 12 9 3 3 3 3 3 3 2 4 4 4 3 3 3 3 3 3 4 3 3 3 4
3 7 3 3 3 4 4 4 4 4 4 6 13 11 13 12 13 13 12 9 4 4 3 3 3 3 3 3 3 3 3 4 3 3 3 3 3 3 3 3 3 2 2
3 3 3 3 3 5 4 4 4 4 4 7 8 10 13 13 12 12 11 3 3 3 3 3 3 3 3 3 3 3 4 4 4 3 4 4 3 3 3 3 3 8 6
4 9 6 4 4 4 4 4 4 5 5 5 5 7 7 5 5 5 4 3 3 3 3 4 3 3 3 3 3 3 4 5 4 3 3 3 3 4 4 3 3 3 3
3 4 10 3 3 3 4 4 4 4 4 5 5 7 12 3 4 4 3 3 3 3 3 3 3 3 3 3 3 3 3 4 3 3 3 2 2 3 2 3 4 3 3
3 3 3 3 3 4 4 4 4 4 4 5 6 8 12 3 3 3 3 3 4 5 3 3 3 4 3 3 3 3 3 3 2 2 3 2 1 2 2 2 2 3 4
2 3 3 3 3 8 5 4 4 5 5 5 5 5 4 3 4 6 7 8 9 9 9 9 9 9 9 8 7 6 3 2 2 1 1 1 2 2 1 2 2 2 3
2 2 3 3 4 3 3 3 4 7 5 5 4 6 7 8 9 10 10 11 12 11 11 12 12 12 12 12 11 11 11 9 7 5 4 2 1 3 2 2 2 2 2
6 6 5 3 4 3 3 3 4 4 4 6 8 9 10 10 11 12 12 12 12 13 13 12 13 13 13 14 13 13 15 16 9 12 4 3 3 2 1 2 2 3 3
9 8 8 6 5 5 6 5 6 8 9 11 11 11 11 12 12 13 13 13 14 14 14 14 14 15 14 14 15 16 16 15 13 14 9 8 9 8 7 8 8 8 8